SCP
0 0 0 0 0 0 0 0 0 0 0 0 0 0 0 0 0 0 0 0 0 0 0 0 0 0 0 0 0 0 0 0
0 0 0 0 0 0 0 0 0 0 0 0 0 0 0 0 0 0 0 0 0 0 0 0 0 0 0 0 0 0 0 0
0 0 0 0 0 0 0 0 0 0 0 0 0 0 0 0 0 0 0 0 0 0 0 0 0 0 0 0 0 0 0 0
0 0 0 0 0 0 0 0 0 0 0 0 0 0 0 0 0 0 0 0 0 0 0 0 0 0 0 0 0 0 0 0
0 0 0 0 0 0 0 0 0 0 0 0 0 0 0 0 0 0 0 0 0 0 0 0 0 0 0 0 0 0 0 0
0 0 0 0 0 0 0 0 0 0 0 0 0 0 0 0 0 0 0 0 0 0 0 0 0 0 0 0 0 0 0 0
0 0 0 0 0 0 0 0 0 0 0 0 0 0 0 0 0 0 0 0 0 0 0 0 0 0 0 0 0 0 0 0
0 0 0 0 0 0 0 0 0 0 0 0 0 0 0 0 0 0 0 0 0 0 0 0 0 0 0 0 0 0 0 0
-0 0 0 0 0 0 0 0 0 0 0 0 0 0 0 0 0 0 0 0 0 0 0 0 0 0 0 0 0 0 0 0
0 0 0 0 0 0 0 0 0 0 0 0 0 0 0 0 0 0 0 0 0 0 0 0 0 0 0 0 0 0 0 0
0 0 0 0 0 0 0 0 0 0 0 0 0 0 0 0 0 0 0 0 0 0 0 0 0 0 0 0 0 0 0 0
0 0 0 0 0 0 0 0 0 0 0 0 0 0 0 0 0 0 0 0 0 0 0 0 0 0 0 0 0 0 0 0
0 0 0 0 0 0 0 0 0 0 0 0 0 0 0 0 0 0 0 0 0 0 0 0 0 0 0 0 0 0 0 0
0 0 0 0 0 0 0 0 0 0 0 0 0 0 0 0 0 0 0 0 0 0 0 0 0 0 0 0 0 0 0 0
0 0 0 0 0 0 0 0 0 0 0 0 0 0 0 0 0 0 0 0 0 0 0 0 0 0 0 0 0 0 0 0
0 0 0 0 0 0 0 0 0 0 0 0 0 0 0 0 0 0 0 0 0 0 0 0 0 0 0 0 0 0 0 0
0 0 0 0 0 0 0 0 0 0 0 0 0 0 0 0 0 0 0 0 0 0 0 0 0 0 0 0 0 0 0 0
0 0 0 0 0 0 0 0 0 0 0 0 0 0 0 0 0 0 0 0 0 0 0 0 0 0 0 0 0 0 0 0
0 0 0 0 0 0 0 0 0 0 0 0 0 0 0 0 0 0 0 0 0 0 0 0 0 0 0 0 0 0 0 0
0 0 0 0 0 0 0 0 0 0 0 0 0 0 0 0 0 0 0 0 0 0 0 0 0 0 0 0 0 0 0 0
Wind_Speed_500mb
24 18 19 20 16 13 12 11 12 13 14 15 18 22 21 19 21 19 18 19 19 17 15 11 9 5 3 9 14 14 14 14
23 24 24 22 15 5 8 10 13 15 16 20 23 21 20 21 19 21 21 21 22 21 18 15 12 8 4 4 9 15 19 21
9 17 21 17 14 9 9 11 14 16 19 19 20 16 15 15 15 17 16 16 18 19 18 15 12 9 6 1 4 9 12 16
10 13 16 13 13 9 9 13 17 20 20 18 18 14 12 11 10 11 12 11 12 16 18 16 12 9 8 5 5 9 11 14
14 13 12 12 11 11 13 16 19 20 19 18 15 13 10 8 5 5 6 7 9 12 17 19 17 14 12 10 6 9 13 15
16 9 8 7 8 9 13 17 19 16 13 12 11 8 8 5 3 4 7 9 10 11 16 21 22 19 17 16 12 10 10 14
17 9 7 11 6 8 10 13 13 14 13 14 14 12 10 12 10 11 12 14 15 12 20 27 26 23 20 17 17 16 16 19
23 13 12 14 12 12 13 14 15 20 22 21 22 23 22 21 19 16 19 20 19 23 25 28 27 27 24 22 22 23 23 18
32 15 11 14 13 15 20 23 24 26 26 29 33 34 33 31 30 29 25 27 30 32 31 31 29 27 27 25 26 26 23 23
26 24 18 18 19 21 22 22 27 30 33 38 41 43 41 41 41 40 37 41 40 40 42 35 31 31 30 28 30 29 27 26
13 23 21 19 21 26 32 34 37 39 44 44 48 50 51 50 51 49 45 50 50 48 53 46 42 37 36 35 33 34 30 29
16 5 16 33 38 37 34 37 40 49 55 55 55 58 58 58 58 59 59 60 60 61 59 57 53 49 38 45 39 38 37 36
28 27 31 34 29 37 45 56 51 50 55 51 52 54 57 61 63 60 59 61 55 57 57 58 48 38 49 47 45 42 42 41
24 26 29 36 42 51 56 57 60 60 61 63 66 68 69 70 69 67 68 61 54 53 54 64 63 60 61 50 51 48 48 45
33 35 42 47 51 56 58 61 62 67 66 65 62 59 61 62 67 67 64 64 60 58 57 55 57 57 68 55 21 25 25 29
40 43 44 45 50 58 60 63 66 67 66 65 63 61 59 61 62 63 61 61 60 59 55 55 57 60 61 70 72 50 31 20
37 43 47 48 50 56 60 64 66 68 69 69 67 64 61 62 63 62 64 63 66 63 60 56 61 65 70 73 76 65 53 48
47 48 51 50 50 55 58 62 65 63 60 59 69 68 64 62 74 84 81 75 69 59 61 63 61 67 70 76 73 71 64 57
47 52 54 52 58 60 64 62 60 62 63 67 72 73 76 75 72 67 60 60 72 83 82 78 70 75 75 78 82 74 65 55
53 54 56 61 66 64 58 59 65 71 72 72 68 61 57 52 51 53 60 65 60 56 57 61 63 63 60 66 79 79 67 60
Wind_Direction_500mb
181 183 185 199 192 179 167 176 167 163 155 146 136 126 112 105 98 90 88 80 75 74 74 67 70 91 168 193 198 202 204 213
202 208 208 214 216 168 195 193 173 166 158 145 142 133 120 112 99 90 89 84 77 72 70 67 65 74 103 193 211 219 224 231
237 241 235 244 208 209 209 201 187 172 160 153 152 135 130 122 113 97 89 79 68 65 61 59 53 54 53 46 251 244 244 246
220 242 235 239 217 225 206 196 187 180 170 161 164 164 150 142 128 112 93 75 64 54 46 43 34 14 2 346 277 261 257 260
190 213 224 229 240 222 200 189 184 180 181 175 174 180 176 161 147 112 79 55 32 31 30 26 20 8 358 2 343 279 266 263
186 183 208 220 221 210 195 188 184 189 194 199 197 207 205 215 268 325 345 346 353 353 4 360 358 350 343 340 340 331 313 281
195 181 184 178 177 189 193 199 211 217 232 235 240 248 249 264 272 297 320 324 329 326 333 333 335 338 328 328 326 317 295 293
204 196 180 198 214 218 221 228 240 250 256 257 257 258 266 268 266 281 299 307 307 303 310 315 316 324 321 318 322 318 307 294
235 205 213 228 240 259 260 257 254 257 264 264 266 265 270 270 269 268 277 288 288 286 292 298 300 305 312 307 310 310 299 291
241 232 233 242 258 261 271 269 269 274 278 275 267 265 264 269 267 266 265 273 276 277 278 279 282 291 300 307 302 299 291 282
246 230 242 266 270 282 276 278 281 289 288 285 284 279 272 269 267 266 265 262 263 270 268 269 272 280 290 299 298 293 287 282
218 293 291 287 269 277 281 277 285 280 286 277 274 277 275 269 269 263 260 258 257 255 255 258 260 260 280 282 283 290 289 279
325 310 294 287 288 286 286 289 295 290 288 291 286 285 275 276 275 272 268 272 269 268 259 247 239 258 271 265 271 281 285 278
314 307 301 289 287 287 284 280 281 284 283 282 283 281 278 275 273 272 272 269 266 265 268 265 258 269 259 256 264 268 275 278
302 294 292 293 289 285 285 284 284 286 288 291 288 285 280 274 267 268 264 263 260 262 258 255 256 256 253 242 228 251 273 267
304 293 293 292 288 284 284 284 285 287 287 285 282 278 273 267 267 267 264 257 255 259 258 253 253 251 253 241 242 248 249 248
302 300 299 300 295 291 291 291 292 292 291 289 287 281 273 267 262 258 254 257 261 262 255 251 250 252 251 245 237 237 241 240
313 310 309 310 305 301 299 297 296 292 291 294 296 290 286 278 273 270 265 256 254 259 260 256 254 255 250 241 235 233 237 235
319 321 319 313 308 306 305 298 295 295 292 295 290 290 289 285 274 266 262 255 253 253 249 255 255 251 246 241 237 239 244 242
326 321 316 313 311 309 304 300 299 297 295 296 298 296 294 292 280 272 261 251 246 243 239 242 239 242 247 243 236 234 238 239
Wind_Speed_850mb
24 18 19 20 16 13 12 11 12 13 14 15 18 22 21 19 21 19 18 19 19 17 15 11 9 5 3 9 14 14 14 14
23 24 24 22 15 5 8 10 13 15 16 20 23 21 20 21 19 21 21 21 22 21 18 15 12 8 4 4 9 15 19 21
9 17 21 17 14 9 9 11 14 16 19 19 20 16 15 15 15 17 16 16 18 19 18 15 12 9 6 1 4 9 12 16
10 13 16 13 13 9 9 13 17 20 20 18 18 14 12 11 10 11 12 11 12 16 18 16 12 9 8 5 5 9 11 14
14 13 12 12 11 11 13 16 19 20 19 18 15 13 10 8 5 5 6 7 9 12 17 19 17 14 12 10 6 9 13 15
16 9 8 7 8 9 13 17 19 16 13 12 11 8 8 5 3 4 7 9 10 11 16 21 22 19 17 16 12 10 10 14
17 9 7 11 6 8 10 13 13 14 13 14 14 12 10 12 10 11 12 14 15 12 20 27 26 23 20 17 17 16 16 19
23 13 12 14 12 12 13 14 15 20 22 21 22 23 22 21 19 16 19 20 19 23 25 28 27 27 24 22 22 23 23 18
32 15 11 14 13 15 20 23 24 26 26 29 33 34 33 31 30 29 25 27 30 32 31 31 29 27 27 25 26 26 23 23
26 24 18 18 19 21 22 22 27 30 33 38 41 43 41 41 41 40 37 41 40 40 42 35 31 31 30 28 30 29 27 26
13 23 21 19 21 26 32 34 37 39 44 44 48 50 51 50 51 49 45 50 50 48 53 46 42 37 36 35 33 34 30 29
16 5 16 33 38 37 34 37 40 49 55 55 55 58 58 58 58 59 59 60 60 61 59 57 53 49 38 45 39 38 37 36
28 27 31 34 29 37 45 56 51 50 55 51 52 54 57 61 63 60 59 61 55 57 57 58 48 38 49 47 45 42 42 41
24 26 29 36 42 51 56 57 60 60 61 63 66 68 69 70 69 67 68 61 54 53 54 64 63 60 61 50 51 48 48 45
33 35 42 47 51 56 58 61 62 67 66 65 62 59 61 62 67 67 64 64 60 58 57 55 57 57 68 55 21 25 25 29
40 43 44 45 50 58 60 63 66 67 66 65 63 61 59 61 62 63 61 61 60 59 55 55 57 60 61 70 72 50 31 20
37 43 47 48 50 56 60 64 66 68 69 69 67 64 61 62 63 62 64 63 66 63 60 56 61 65 70 73 76 65 53 48
47 48 51 50 50 55 58 62 65 63 60 59 69 68 64 62 74 84 81 75 69 59 61 63 61 67 70 76 73 71 64 57
47 52 54 52 58 60 64 62 60 62 63 67 72 73 76 75 72 67 60 60 72 83 82 78 70 75 75 78 82 74 65 55
53 54 56 61 66 64 58 59 65 71 72 72 68 61 57 52 51 53 60 65 60 56 57 61 63 63 60 66 79 79 67 60
Wind_Direction_850mb
181 183 185 199 192 179 167 176 167 163 155 146 136 126 112 105 98 90 88 80 75 74 74 67 70 91 168 193 198 202 204 213
202 208 208 214 216 168 195 193 173 166 158 145 142 133 120 112 99 90 89 84 77 72 70 67 65 74 103 193 211 219 224 231
237 241 235 244 208 209 209 201 187 172 160 153 152 135 130 122 113 97 89 79 68 65 61 59 53 54 53 46 251 244 244 246
220 242 235 239 217 225 206 196 187 180 170 161 164 164 150 142 128 112 93 75 64 54 46 43 34 14 2 346 277 261 257 260
190 213 224 229 240 222 200 189 184 180 181 175 174 180 176 161 147 112 79 55 32 31 30 26 20 8 358 2 343 279 266 263
186 183 208 220 221 210 195 188 184 189 194 199 197 207 205 215 268 325 345 346 353 353 4 360 358 350 343 340 340 331 313 281
195 181 184 178 177 189 193 199 211 217 232 235 240 248 249 264 272 297 320 324 329 326 333 333 335 338 328 328 326 317 295 293
204 196 180 198 214 218 221 228 240 250 256 257 257 258 266 268 266 281 299 307 307 303 310 315 316 324 321 318 322 318 307 294
235 205 213 228 240 259 260 257 254 257 264 264 266 265 270 270 269 268 277 288 288 286 292 298 300 305 312 307 310 310 299 291
241 232 233 242 258 261 271 269 269 274 278 275 267 265 264 269 267 266 265 273 276 277 278 279 282 291 300 307 302 299 291 282
246 230 242 266 270 282 276 278 281 289 288 285 284 279 272 269 267 266 265 262 263 270 268 269 272 280 290 299 298 293 287 282
218 293 291 287 269 277 281 277 285 280 286 277 274 277 275 269 269 263 260 258 257 255 255 258 260 260 280 282 283 290 289 279
325 310 294 287 288 286 286 289 295 290 288 291 286 285 275 276 275 272 268 272 269 268 259 247 239 258 271 265 271 281 285 278
314 307 301 289 287 287 284 280 281 284 283 282 283 281 278 275 273 272 272 269 266 265 268 265 258 269 259 256 264 268 275 278
302 294 292 293 289 285 285 284 284 286 288 291 288 285 280 274 267 268 264 263 260 262 258 255 256 256 253 242 228 251 273 267
304 293 293 292 288 284 284 284 285 287 287 285 282 278 273 267 267 267 264 257 255 259 258 253 253 251 253 241 242 248 249 248
302 300 299 300 295 291 291 291 292 292 291 289 287 281 273 267 262 258 254 257 261 262 255 251 250 252 251 245 237 237 241 240
313 310 309 310 305 301 299 297 296 292 291 294 296 290 286 278 273 270 265 256 254 259 260 256 254 255 250 241 235 233 237 235
319 321 319 313 308 306 305 298 295 295 292 295 290 290 289 285 274 266 262 255 253 253 249 255 255 251 246 241 237 239 244 242
326 321 316 313 311 309 304 300 299 297 295 296 298 296 294 292 280 272 261 251 246 243 239 242 239 242 247 243 236 234 238 239